GW3347 Weather Reports


Display with metric or nautical units.
time (UTC)temp
F
wind
direction
speed
MPH
gust
MPH
rain 1hr
in
rain 24hr
in
rain mn
in
humidity
%
barometer
mb
20260510203032 77 0 0.0 7.0 0.00 0.00 0.00 50 1011.3
20260510201531 78 0 1.0 9.0 0.00 0.00 0.00 48 1011.3
20260510200033 78 142 0.0 10.0 0.00 0.00 0.00 50 1011.5
20260510194538 77 0 2.0 14.0 0.00 0.00 0.00 52 1011.8
20260510193030 77 0 0.0 8.0 0.00 0.00 0.00 53 1011.9
20260510191532 78 150 0.0 9.0 0.00 0.00 0.00 51 1012.1
20260510190045 77 0 0.0 15.0 0.00 0.00 0.00 53 1012.2
20260510184532 77 141 2.0 11.0 0.00 0.00 0.00 51 1012.3
20260510183030 77 0 1.0 13.0 0.00 0.00 0.00 53 1012.2
20260510181528 76 0 0.0 7.0 0.00 0.00 0.00 53 1012.4
20260510180031 77 0 1.0 10.0 0.00 0.00 0.00 54 1012.4
20260510174530 78 0 0.0 8.0 0.00 0.00 0.00 51 1012.4
20260510173035 78 0 0.0 10.0 0.00 0.00 0.00 55 1012.4
20260510171532 80 0 0.0 3.0 0.00 0.00 0.00 54 1012.7
20260510170032 79 0 0.0 9.0 0.00 0.00 0.00 45 1012.7
20260510164534 79 327 0.0 4.0 0.00 0.00 0.00 47 1013.0
20260510163041 78 0 0.0 0.0 0.00 0.00 0.00 50 1013.1
20260510161534 77 0 1.0 10.0 0.00 0.00 0.00 50 1013.2
20260510160029 76 0 0.0 3.0 0.00 0.00 0.00 50 1013.1
20260510154531 76 0 0.0 0.0 0.00 0.00 0.00 52 1013.1
20260510153034 75 0 0.0 7.0 0.00 0.00 0.00 56 1013.1
20260510151533 74 0 0.0 1.0 0.00 0.00 0.00 56 1013.2
20260510150039 74 0 0.0 8.0 0.00 0.00 0.00 56 1013.0
20260510144538 72 0 0.0 1.0 0.00 0.00 0.00 62 1012.7
20260510143037 71 0 0.0 1.0 0.00 0.00 0.00 64 1012.5
20260510141529 70 0 0.0 3.0 0.00 0.00 0.00 67 1012.4
20260510140034 68 0 0.0 0.0 0.00 0.00 0.00 76 1012.5
20260510134530 66 0 0.0 0.0 0.00 0.00 0.00 79 1012.5
20260510133030 64 0 0.0 2.0 0.00 0.00 0.00 84 1012.5
20260510131530 63 0 0.0 0.0 0.00 0.00 0.00 88 1012.8
20260510130034 61 0 0.0 1.0 0.00 0.00 0.00 91 1012.9
20260510124535 60 0 0.0 0.0 0.00 0.00 0.00 93 1013.0
20260510123032 59 0 0.0 0.0 0.00 0.00 0.00 93 1012.9
20260510121530 58 0 0.0 1.0 0.00 0.00 0.00 94 1012.7
20260510120035 57 0 0.0 0.0 0.00 0.00 0.00 95 1012.6
20260510114533 55 0 0.0 1.0 0.00 0.00 0.00 95 1012.6
20260510113031 53 0 0.0 1.0 0.00 0.00 0.00 94 1012.3
20260510111534 51 0 0.0 0.0 0.00 0.00 0.00 94 1012.0
20260510110030 50 0 0.0 0.0 0.00 0.00 0.00 93 1011.6
20260510104531 50 0 0.0 0.0 0.00 0.00 0.00 93 1011.3
20260510103032 49 0 0.0 0.0 0.00 0.00 0.00 93 1011.2
20260510101528 49 0 0.0 0.0 0.00 0.00 0.00 93 1011.1
20260510100041 49 0 0.0 0.0 0.00 0.00 0.00 93 1011.0
20260510094546 49 0 0.0 0.0 0.00 0.00 0.00 92 1010.9
20260510093032 50 0 0.0 0.0 0.00 0.00 0.00 92 1011.0
20260510091531 50 0 0.0 0.0 0.00 0.00 0.00 92 1010.8
20260510090037 50 0 0.0 0.0 0.00 0.00 0.00 92 1010.8
20260510084532 50 0 0.0 0.0 0.00 0.00 0.00 92 1010.7
20260510083031 51 0 0.0 0.0 0.00 0.00 0.00 92 1010.3
20260510081543 51 0 0.0 0.0 0.00 0.00 0.00 92 1010.1
20260510080032 51 0 0.0 0.0 0.00 0.00 0.00 91 1010.0
20260510074530 51 0 0.0 0.0 0.00 0.00 0.00 91 1009.9
20260510073028 52 0 0.0 0.0 0.00 0.00 0.00 91 1009.8
20260510071539 52 0 0.0 0.0 0.00 0.00 0.00 91 1009.8
20260510070038 52 0 0.0 0.0 0.00 0.00 0.00 91 1009.8
20260510064532 53 0 0.0 0.0 0.00 0.00 0.00 90 1009.9
20260510063035 53 0 0.0 0.0 0.00 0.00 0.00 90 1009.7
20260510061530 53 0 0.0 0.0 0.00 0.00 0.00 91 1009.6
20260510060028 53 0 0.0 0.0 0.00 0.00 0.00 90 1009.5
20260510054530 53 0 0.0 0.0 0.00 0.00 0.00 90 1009.6
20260510053030 54 0 0.0 0.0 0.00 0.00 0.00 89 1009.7
20260510051532 54 0 0.0 0.0 0.00 0.00 0.00 89 1009.8
20260510050029 55 0 0.0 0.0 0.00 0.00 0.00 88 1009.7
20260510044533 55 0 0.0 0.0 0.00 0.00 0.00 88 1009.7
20260510043031 56 0 0.0 0.0 0.00 0.00 0.00 86 1009.7
20260510041530 56 0 0.0 0.0 0.00 0.00 0.00 86 1009.7
20260510040031 57 0 0.0 0.0 0.00 0.00 0.00 86 1009.6
20260510034540 57 0 0.0 0.0 0.00 0.00 0.00 85 1009.5
20260510033029 58 0 0.0 0.0 0.00 0.00 0.00 84 1009.5
20260510031531 59 0 0.0 0.0 0.00 0.00 0.00 84 1009.5
20260510030032 59 0 0.0 0.0 0.00 0.00 0.00 82 1009.4
20260510024529 60 0 0.0 0.0 0.00 0.00 0.00 80 1009.3
20260510023032 60 0 0.0 0.0 0.00 0.00 0.00 80 1009.3
20260510021533 61 0 0.0 0.0 0.00 0.00 0.00 78 1009.2
20260510020030 62 0 0.0 1.0 0.00 0.00 0.00 75 1009.2
20260510014536 64 0 0.0 0.0 0.00 0.00 0.00 73 1009.0
20260510013032 64 0 0.0 0.0 0.00 0.00 0.00 72 1008.7
20260510011539 64 0 0.0 0.0 0.00 0.00 0.00 71 1008.6
20260510010031 64 0 0.0 2.0 0.00 0.00 0.00 71 1008.6
20260510004531 65 0 0.0 6.0 0.00 0.00 0.00 71 1008.7
20260510003032 65 0 0.0 0.0 0.00 0.00 0.00 72 1008.5
20260510001532 65 0 0.0 4.0 0.00 0.00 0.00 71 1008.4
20260510000053 66 0 0.0 7.0 0.00 0.00 0.00 71 1008.3
20260509234546 66 0 0.0 2.0 0.00 0.00 0.00 71 1008.3
20260509233032 66 0 0.0 1.0 0.00 0.00 0.00 69 1008.3
20260509231530 67 0 0.0 6.0 0.00 0.00 0.00 67 1008.1
20260509230035 68 0 0.0 2.0 0.00 0.00 0.00 65 1007.9
20260509224532 69 0 0.0 0.0 0.00 0.00 0.00 65 1008.0
20260509223032 69 0 0.0 9.0 0.00 0.00 0.00 65 1008.1
20260509221531 70 0 0.0 2.0 0.00 0.00 0.00 66 1008.0
20260509220030 71 0 0.0 0.0 0.00 0.00 0.00 66 1008.0
20260509214534 71 0 0.0 1.0 0.00 0.00 0.00 64 1008.0
20260509213038 71 0 0.0 2.0 0.00 0.00 0.00 64 1007.9
20260509211529 71 0 0.0 0.0 0.00 0.00 0.00 65 1007.8
20260509210039 71 0 0.0 0.0 0.00 0.00 0.00 66 1007.6
20260509204538 70 0 0.0 1.0 0.00 0.00 0.00 67 1007.6